TimeEDT,TemperatureF,Dew PointF,Humidity,Sea Level PressureIn,VisibilityMPH,Wind Direction,Wind SpeedMPH,Gust SpeedMPH,PrecipitationIn,Events,Conditions,WindDirDegrees,DateUTC
12:03 AM,70.9,66.7,87,30.08,10.0,Calm,Calm,-,N/A,,Clear,0,2013-10-05 04:03:00
12:23 AM,71.4,67.1,86,30.08,10.0,Calm,Calm,-,N/A,,Clear,0,2013-10-05 04:23:00
12:44 AM,71.2,67.3,87,30.08,10.0,Calm,Calm,-,N/A,,Clear,0,2013-10-05 04:44:00
1:04 AM,69.6,68.0,95,30.08,10.0,Calm,Calm,-,N/A,,Clear,0,2013-10-05 05:04:00
1:24 AM,69.8,67.3,92,30.08,10.0,Calm,Calm,-,N/A,,Clear,0,2013-10-05 05:24:00
1:44 AM,68.9,68.9,100,30.08,10.0,Calm,Calm,-,N/A,,Clear,0,2013-10-05 05:44:00
2:04 AM,69.8,69.8,100,30.08,10.0,Calm,Calm,-,N/A,,Clear,0,2013-10-05 06:04:00
2:24 AM,70.0,70.0,100,30.08,10.0,Calm,Calm,-,N/A,,Clear,0,2013-10-05 06:24:00
2:44 AM,69.8,69.8,100,30.08,10.0,Calm,Calm,-,N/A,,Clear,0,2013-10-05 06:44:00
3:04 AM,68.9,68.9,100,30.08,10.0,Calm,Calm,-,N/A,,Clear,0,2013-10-05 07:04:00
3:24 AM,68.9,68.9,100,30.08,10.0,Calm,Calm,-,N/A,,Scattered Clouds,0,2013-10-05 07:24:00
3:44 AM,69.8,69.8,100,30.08,10.0,Calm,Calm,-,N/A,,Mostly Cloudy,0,2013-10-05 07:44:00
4:04 AM,70.2,70.2,100,30.08,10.0,Calm,Calm,-,N/A,,Mostly Cloudy,0,2013-10-05 08:04:00
4:24 AM,69.3,69.3,100,30.08,7.0,Calm,Calm,-,N/A,,Scattered Clouds,0,2013-10-05 08:24:00
4:44 AM,68.9,68.9,100,30.08,10.0,Calm,Calm,-,N/A,,Clear,0,2013-10-05 08:44:00
5:04 AM,69.1,69.1,100,30.08,10.0,Calm,Calm,-,N/A,,Clear,0,2013-10-05 09:04:00
5:24 AM,68.7,68.7,100,30.08,7.0,Calm,Calm,-,N/A,,Clear,0,2013-10-05 09:24:00
5:44 AM,68.4,68.4,100,30.09,7.0,Calm,Calm,-,N/A,,Clear,0,2013-10-05 09:44:00
5:53 AM,68.0,68.0,100,30.09,7.0,Calm,Calm,-,N/A,,Clear,0,2013-10-05 09:53:00
6:04 AM,67.8,67.8,100,30.09,7.0,Calm,Calm,-,N/A,,Clear,0,2013-10-05 10:04:00
6:24 AM,68.9,68.9,100,30.10,7.0,Calm,Calm,-,N/A,,Clear,0,2013-10-05 10:24:00
6:44 AM,68.4,68.4,100,30.10,5.0,Calm,Calm,-,N/A,,Clear,0,2013-10-05 10:44:00
6:46 AM,68.5,68.5,100,30.10,5.0,Calm,Calm,-,N/A,,Clear,0,2013-10-05 10:46:00
6:53 AM,66.2,66.2,100,30.10,7.0,Calm,Calm,-,N/A,,Scattered Clouds,0,2013-10-05 10:53:00
7:53 AM,68.0,68.0,100,30.11,7.0,Calm,Calm,-,N/A,,Scattered Clouds,0,2013-10-05 11:53:00
8:50 AM,73.4,73.4,100,30.12,10.0,Calm,Calm,-,N/A,,Scattered Clouds,0,2013-10-05 12:50:00
9:57 AM,80.6,68.0,65,30.12,10.0,NNW,4.6,-,N/A,,Clear,340,2013-10-05 13:57:00
10:54 AM,82.4,68.0,62,30.12,10.0,NE,5.8,-,N/A,,Clear,50,2013-10-05 14:54:00
11:48 AM,84.2,66.2,55,30.11,10.0,Calm,Calm,-,N/A,,Scattered Clouds,0,2013-10-05 15:48:00
12:47 PM,86.0,66.2,51,30.10,10.0,WNW,5.8,-,N/A,,Scattered Clouds,300,2013-10-05 16:47:00
1:50 PM,86.0,64.4,48,30.08,10.0,NW,3.5,-,N/A,,Scattered Clouds,310,2013-10-05 17:50:00
2:55 PM,87.8,64.4,46,30.07,10.0,NW,5.8,-,N/A,,Scattered Clouds,310,2013-10-05 18:55:00
3:55 PM,87.8,64.4,46,30.06,10.0,SW,3.5,-,N/A,,Scattered Clouds,230,2013-10-05 19:55:00
4:55 PM,86.0,64.4,48,30.06,10.0,Calm,Calm,-,N/A,,Scattered Clouds,0,2013-10-05 20:55:00
5:45 PM,84.2,66.2,55,30.06,10.0,Calm,Calm,-,N/A,,Partly Cloudy,0,2013-10-05 21:45:00
6:45 PM,80.6,66.2,61,30.06,10.0,Calm,Calm,-,N/A,,Partly Cloudy,0,2013-10-05 22:45:00
7:47 PM,77.0,66.2,69,30.05,10.0,Calm,Calm,-,N/A,,Clear,0,2013-10-05 23:47:00
8:45 PM,75.2,66.2,73,30.07,10.0,Calm,Calm,-,N/A,,Clear,0,2013-10-06 00:45:00
10:06 PM,72.3,66.0,80,30.08,10.0,Calm,Calm,-,N/A,,Clear,0,2013-10-06 02:06:00
10:26 PM,71.8,66.9,85,30.09,10.0,Calm,Calm,-,N/A,,Clear,0,2013-10-06 02:26:00
10:46 PM,72.5,67.6,85,30.09,10.0,Calm,Calm,-,N/A,,Clear,0,2013-10-06 02:46:00
11:06 PM,71.1,67.6,89,30.09,10.0,Calm,Calm,-,N/A,,Clear,0,2013-10-06 03:06:00
11:26 PM,71.2,67.3,87,30.09,10.0,Calm,Calm,-,N/A,,Clear,0,2013-10-06 03:26:00
11:46 PM,71.1,67.5,88,30.08,10.0,Calm,Calm,-,N/A,,Clear,0,2013-10-06 03:46:00